Showing default

GOES 1 (SMS-C), 8366

Orbit data source: Space-Track

GOES 1 (SMS-C), 8366 is a payload satellite owned by NOAA (US) in GEO that was launched on Thu, 16 Oct 1975 UTC via a DELTA 2914 launch vehicle from the Air Force Eastern Test Range (AFETR). Payload-class satellites include a variety of spacecraft equipped with specific instruments for various scientific and technological missions. These include communications satellites like Starlink; space stations such as the ISS; scientific satellites like the Hubble; Earth observation satellites from companies like Planet Labs, Umbra, and HawkEye 360; GPS; miniature CubeSats for education and research; and military/defense satellites.

Loading next visibility...
Identifier
8366, 1975-100A
Orbit
GEO
Country
Flag of USUS
Related business
Manufacturer
Ae Ford WDL
Mission
Non-operational Civil Weather
Bus & Motor
SMS, SVM-5
Mass
~612 kg wet, ~277 kg dry
Launch date (UTC)
1975-10-16 (50 years ago)
Launch vehicle
DELTA 2914
Launch site
Air Force Eastern Test Range (AFETR)
Object type
Payload
Rocket body
Debris
Shape & HBR
Cyl, 1.3 m
Radar Cross Section
5.298 m², Large (>1 m²)

Expand to show TLE details & history
Last TLE update: 18 hours ago

TLE from 18 hours ago
0 GOES 1 (SMS-C)
1 08366U 75100A   25260.54767053 -.00000172  00000-0  00000-0 0  9999
2 08366   5.3073 280.8339 0004811 318.5354 219.5763  1.00230865182334
Epoch: 2025-09-17T13:08Z
TLE epoch observation values (Epoch: 2025-09-17T13:08:38.733Z)
Latitude
0.1613°
Longitude
-94.94884°
Altitude
35,813.094 km
Speed
3.073 km/s
True Right ascension
06h 35m 44s
True Declination
0° 09' 40"
Sunlit
Object was in daylight at epoch
Visualization orbit readout
Latitude
Unknown
Longitude
Unknown
Altitude
Unknown
Speed
Unknown
Apparent Right ascension
Unknown
Apparent Declination
Unknown
Sunlit
N/A
Visualization observer readout
Local Sidereal Time
23:53:44
Azimuth
Unknown
Elevation
Unknown
Doppler factor
Unknown
Orbital elements
Apogee altitude
35,819.418 km
Perigee altitude
35,778.835 km
Semi-major axis
42,177.264 km
Eccentricity
0.00048
Inclination
5.3073°
RAAN
280.8339°
Arg. of periapsis
318.5354°
True anomaly
219.54119°
Mean anomaly
219.5763°
Eccentric anomaly
219.55874°
Mean motion
0.25057 °/min
Orbital period
1,436.74 mins
BSTAR
0
Loading maneuver chart data...
Computing Atmospheric mass density...
Loading historical data...
Loading historical data...
Loading historical data...
Loading historical data...
Loading historical data...
Loading historical data...
Loading historical data...

Documentation

Showing up to 5 results
|